カタログに戻る

OPS 4682 DEB

運用中PO
NORAD 51766·DEBRIS·🇺🇸 United States

打ち上げ Apr 3, 1965 から Vandenberg Space Force Base

Loading…

次のパス (今後24時間)

TLE

最新Source: Space-Track

元期: Sep 13, 2026, 13:59 UTC

1 51766U 65027GX  26256.58319656 -.00000080  00000-0 -31929-3 0  9996
2 51766  90.2535   9.8524 0031471  49.8040 310.5826 12.93294776553660

AllMySatでOPS 4682 DEBをリアルタイム追跡

Download on the App Store